Regional Weather Roundup
Issued by NWS

Home | Current Version | Previous Version | Text Only | Print | Product List | Glossary On
Versions: 1 2 3 4 5 6 7 8 9 10 11 12 13 14 15 16 17 18 19 20 21 22 23 24 25 26 27 28 29 30 31 32 33 34 35 36 37 38 39 40 41 42 43 44 45 46 47 48 49 50
000
ASUS45 KABQ 170210
RWRNM
NEW MEXICO REGIONAL WEATHER ROUNDUP
NATIONAL WEATHER SERVICE ALBUQUERQUE NM
700 PM MST SAT DEC 16 2017

NOTE: "FAIR" MEANS FEW OR NO CLOUDS BELOW 12,000 FEET AGL WITH NO
       SIGNIFICANT WEATHER OR OBSTRUCTIONS TO VISION.

      THIS PRODUCT IS RELEASED AS TWO VERSIONS.  ONE VERSION NEAR
      THE TOP OF THE HOUR CONTAINING PRELIMINARY DATA FROM ALBUQUERQUE
      AND OTHER STATIONS.  A FINAL VERSION WITH ADDITIONAL DATA IS
      ISSUED ABOUT 10 MINUTES AFTER THE HOUR.

NMZ501-503-504-510>518-170300-
NORTHWEST PLATEAU/NORTHCENTRAL MOUNTAINS

CITY           SKY/WX    TMP DP  RH WIND       PRES   REMARKS
FARMINGTON     FAIR      33  11  39 W6        29.79R WCI  28
LOS ALAMOS     FAIR      37  12  36 SW6       29.81R WCI  32
SANTA FE       FAIR      35  13  40 W8        29.79R WCI  29
TAOS           FAIR      35   5  28 S5        29.82R WCI  31
ANGEL FIRE     FAIR      28   3  34 NW3       29.82R

$$
NMZ402-403-502-505>509-170300-
WESTCENTRAL MOUNTAINS/SOUTHWEST MOUNTAINS

CITY           SKY/WX    TMP DP  RH WIND       PRES   REMARKS
GALLUP         FAIR      40   6  24 S5        29.84R
GRANTS         FAIR      39  -8  13 CALM      29.84R
SILVER CITY    FAIR      38  15  38 W8        29.89R WCI  33

$$
NMZ407-409-411-412-170300-
SOUTHERN DESERTS

CITY           SKY/WX    TMP DP  RH WIND       PRES   REMARKS
DEMING         FAIR      42  21  43 W5        29.87R
LAS CRUCES     FAIR      41  22  47 SW8       29.87R
HOLLOMAN AFB   FAIR      44  20  39 E10       29.86R
ALAMOGORDO     FAIR      41  21  45 SE9       29.86R
T OR C         FAIR      44  17  33 NW5       29.82R

$$
NMZ519>523-170300-
CENTRAL VALLEYS/CENTRAL HIGHLANDS

CITY           SKY/WX    TMP DP  RH WIND       PRES   REMARKS
ALBUQUERQUE    MOCLDY    38  15  39 E7        29.81R WCI  33
DOUBLE EAGLE   PTCLDY    28  12  50 S7        29.81R WCI  21
MORIARTY ARPT  FAIR      30  10  43 N5        29.81R WCI  25
CLINES CORNERS FAIR      29   5  36 W18       29.79R WCI  16
BELEN          FAIR      35  15  45 SE5       29.81R WCI  31
SOCORRO        FAIR      38  16  39 S8        29.82R WCI  33

$$
NMZ524>526-539-540-170300-
SOUTHCENTRAL MOUNTAINS

CITY           SKY/WX    TMP DP  RH WIND       PRES   REMARKS
RUIDOSO        FAIR      34   9  35 SW9       29.83R WCI  26

$$
NMZ527>531-170300-
NORTHEAST HIGHLANDS/NORTHEAST PLAINS

CITY           SKY/WX    TMP DP  RH WIND       PRES   REMARKS
LAS VEGAS      FAIR      31  10  41 N12       29.74R WCI  22
RATON          FAIR      36  10  34 N9        29.76R WCI  29
CLAYTON        FAIR      37  12  35 SW7       29.73R WCI  32

$$
NMZ532>537-170300-
EASTCENTRAL PLAINS

CITY           SKY/WX    TMP DP  RH WIND       PRES   REMARKS
SANTA ROSA     FAIR      44  13  28 SW16G22   29.70R
TUCUMCARI      FAIR      43  16  33 SE9       29.70R
CANNON AFB     FAIR      37  26  65 SE9       29.78R WCI  30
CLOVIS AIRPORT FAIR      37  25  61 S10       29.78R WCI  30

$$
NMZ028-029-538-170300-
SOUTHEAST PLAINS

CITY           SKY/WX    TMP DP  RH WIND       PRES   REMARKS
ROSWELL        FAIR      46  18  32 S14       29.73R
ARTESIA        FAIR      50  23  34 S13G21    29.77R
CARLSBAD       FAIR      40  27  59 S7        29.78R
HOBBS          FAIR      41  37  87 S12G17    29.82R


$$




USA.gov is the U.S. government's official web portal to all federal, state and local government web resources and services.